| time (UTC) | temp F | wind direction | speed MPH | gust MPH | rain 1hr in | rain 24hr in | rain mn in | humidity % | barometer mb |
| 20260906031021 | 46 | 0.0 | 0.0 | 0.00 | 0.00 | 0.00 | 96 | ||
| 20260906030027 | 47 | 0.0 | 0.0 | 0.00 | 0.00 | 0.00 | 96 | ||
| 20260906025020 | 47 | 0.0 | 0.0 | 0.00 | 0.00 | 0.00 | 96 | ||
| 20260906024027 | 47 | 0.0 | 0.0 | 0.00 | 0.00 | 0.00 | 96 | ||
| 20260906023019 | 48 | 158 | 0.0 | 2.0 | 0.00 | 0.00 | 0.00 | 96 | |
| 20260906022028 | 48 | 0.0 | 0.0 | 0.00 | 0.00 | 0.00 | 96 | ||
| 20260906021021 | 48 | 0.0 | 0.0 | 0.00 | 0.00 | 0.00 | 96 | ||
| 20260906020028 | 48 | 0.0 | 0.0 | 0.00 | 0.00 | 0.00 | 95 | ||
| 20260906015020 | 48 | 206 | 0.0 | 1.0 | 0.00 | 0.00 | 0.00 | 95 | |
| 20260906014021 | 48 | 0.0 | 0.0 | 0.00 | 0.00 | 0.00 | 95 | ||
| 20260906013019 | 48 | 0.0 | 0.0 | 0.00 | 0.00 | 0.00 | 95 | ||
| 20260906012028 | 48 | 0.0 | 0.0 | 0.00 | 0.00 | 0.00 | 94 | ||
| 20260906011020 | 49 | 0.0 | 0.0 | 0.00 | 0.00 | 0.00 | 94 | ||
| 20260906010024 | 49 | 0.0 | 0.0 | 0.00 | 0.00 | 0.00 | 94 | ||
| 20260906005019 | 50 | 0.0 | 0.0 | 0.00 | 0.00 | 0.00 | 94 | ||
| 20260906004027 | 50 | 0.0 | 0.0 | 0.00 | 0.00 | 0.00 | 93 | ||
| 20260906003019 | 50 | 0.0 | 0.0 | 0.00 | 0.00 | 0.00 | 93 | ||
| 20260906002029 | 51 | 0.0 | 0.0 | 0.00 | 0.00 | 0.00 | 93 | ||
| 20260906001023 | 51 | 0.0 | 0.0 | 0.00 | 0.00 | 0.00 | 92 | ||
| 20260906000030 | 51 | 349 | 0.0 | 1.0 | 0.00 | 0.00 | 0.00 | 92 | |
| 20260905235019 | 51 | 141 | 0.0 | 1.0 | 0.00 | 0.00 | 0.00 | 91 | |
| 20260905234027 | 52 | 0.0 | 0.0 | 0.00 | 0.00 | 0.00 | 90 | ||
| 20260905233021 | 52 | 36 | 0.0 | 1.0 | 0.00 | 0.00 | 0.00 | 89 | |
| 20260905232020 | 53 | 0.0 | 0.0 | 0.00 | 0.00 | 0.00 | 89 | ||
| 20260905231102 | 53 | 341 | 1.0 | 2.0 | 0.00 | 0.00 | 0.00 | 89 | |
| 20260905230027 | 53 | 0.0 | 0.0 | 0.00 | 0.00 | 0.00 | 87 | ||
| 20260905225019 | 54 | 353 | 1.0 | 2.0 | 0.00 | 0.00 | 0.00 | 87 | |
| 20260905224027 | 55 | 349 | 1.0 | 2.0 | 0.00 | 0.00 | 0.00 | 85 | |
| 20260905223019 | 57 | 351 | 2.0 | 4.0 | 0.00 | 0.00 | 0.00 | 81 | |
| 20260905222027 | 57 | 338 | 2.0 | 5.0 | 0.00 | 0.00 | 0.00 | 80 | |
| 20260905221020 | 57 | 352 | 2.0 | 6.0 | 0.00 | 0.00 | 0.00 | 81 | |
| 20260905220027 | 57 | 346 | 1.0 | 3.0 | 0.00 | 0.00 | 0.00 | 80 | |
| 20260905215022 | 58 | 340 | 1.0 | 2.0 | 0.00 | 0.00 | 0.00 | 79 | |
| 20260905214029 | 58 | 341 | 2.0 | 4.0 | 0.00 | 0.00 | 0.00 | 79 | |
| 20260905213019 | 58 | 340 | 1.0 | 2.0 | 0.00 | 0.00 | 0.00 | 79 | |
| 20260905212027 | 58 | 344 | 1.0 | 3.0 | 0.00 | 0.00 | 0.00 | 79 | |
| 20260905211020 | 57 | 338 | 0.0 | 2.0 | 0.00 | 0.00 | 0.00 | 81 | |
| 20260905210029 | 58 | 342 | 0.0 | 2.0 | 0.00 | 0.00 | 0.00 | 80 | |
| 20260905205021 | 58 | 330 | 1.0 | 3.0 | 0.00 | 0.00 | 0.00 | 80 | |
| 20260905204029 | 58 | 330 | 0.0 | 2.0 | 0.00 | 0.00 | 0.00 | 79 | |
| 20260905203019 | 59 | 0.0 | 1.0 | 0.00 | 0.00 | 0.00 | 76 | ||
| 20260905202020 | 60 | 339 | 1.0 | 2.0 | 0.00 | 0.00 | 0.00 | 75 | |
| 20260905201020 | 60 | 355 | 1.0 | 2.0 | 0.00 | 0.00 | 0.00 | 74 | |
| 20260905200028 | 61 | 350 | 1.0 | 3.0 | 0.00 | 0.00 | 0.00 | 73 | |
| 20260905195019 | 61 | 351 | 2.0 | 9.0 | 0.00 | 0.00 | 0.00 | 71 | |
| 20260905194029 | 61 | 341 | 1.0 | 4.0 | 0.00 | 0.00 | 0.00 | 71 | |
| 20260905193021 | 61 | 351 | 2.0 | 4.0 | 0.00 | 0.00 | 0.00 | 70 | |
| 20260905192027 | 62 | 347 | 1.0 | 4.0 | 0.00 | 0.00 | 0.00 | 70 | |
| 20260905191020 | 62 | 343 | 2.0 | 8.0 | 0.00 | 0.00 | 0.00 | 68 | |
| 20260905190029 | 62 | 357 | 2.0 | 7.0 | 0.00 | 0.00 | 0.00 | 68 | |
| 20260905185019 | 62 | 353 | 2.0 | 5.0 | 0.00 | 0.00 | 0.00 | 68 | |
| 20260905184027 | 63 | 350 | 3.0 | 7.0 | 0.00 | 0.00 | 0.00 | 67 | |
| 20260905183021 | 63 | 339 | 3.0 | 8.0 | 0.00 | 0.00 | 0.00 | 67 | |
| 20260905182029 | 63 | 349 | 2.0 | 4.0 | 0.00 | 0.00 | 0.00 | 68 | |
| 20260905181019 | 63 | 348 | 3.0 | 6.0 | 0.00 | 0.00 | 0.00 | 67 | |
| 20260905180027 | 63 | 351 | 3.0 | 5.0 | 0.00 | 0.00 | 0.00 | 66 | |
| 20260905175019 | 64 | 340 | 3.0 | 9.0 | 0.00 | 0.00 | 0.00 | 65 | |
| 20260905174029 | 64 | 1 | 4.0 | 9.0 | 0.00 | 0.00 | 0.00 | 66 | |
| 20260905173019 | 64 | 338 | 2.0 | 4.0 | 0.00 | 0.00 | 0.00 | 67 | |
| 20260905172029 | 64 | 341 | 2.0 | 4.0 | 0.00 | 0.00 | 0.00 | 66 | |
| 20260905171023 | 65 | 343 | 3.0 | 6.0 | 0.00 | 0.00 | 0.00 | 65 | |
| 20260905170029 | 65 | 349 | 4.0 | 8.0 | 0.00 | 0.00 | 0.00 | 63 | |
| 20260905165019 | 65 | 350 | 4.0 | 7.0 | 0.00 | 0.02 | 0.00 | 64 | |
| 20260905164027 | 65 | 338 | 4.0 | 10.0 | 0.00 | 0.04 | 0.00 | 65 | |
| 20260905163020 | 65 | 334 | 4.0 | 10.0 | 0.00 | 0.06 | 0.00 | 66 | |
| 20260905162021 | 65 | 344 | 3.0 | 6.0 | 0.00 | 0.09 | 0.00 | 67 | |
| 20260905161019 | 65 | 343 | 3.0 | 7.0 | 0.00 | 0.18 | 0.00 | 65 | |
| 20260905160026 | 66 | 347 | 4.0 | 10.0 | 0.00 | 0.21 | 0.00 | 64 | |
| 20260905155019 | 66 | 345 | 5.0 | 13.0 | 0.00 | 0.22 | 0.00 | 65 | |
| 20260905154032 | 66 | 344 | 4.0 | 10.0 | 0.00 | 0.24 | 0.00 | 65 | |
| 20260905153019 | 65 | 349 | 4.0 | 10.0 | 0.00 | 0.24 | 0.00 | 65 | |
| 20260905152028 | 65 | 344 | 4.0 | 8.0 | 0.00 | 0.24 | 0.00 | 67 | |
| 20260905151019 | 65 | 342 | 3.0 | 7.0 | 0.00 | 0.25 | 0.00 | 68 | |
| 20260905150024 | 65 | 340 | 4.0 | 9.0 | 0.00 | 0.26 | 0.00 | 69 | |
| 20260905145021 | 66 | 341 | 3.0 | 6.0 | 0.00 | 0.26 | 0.00 | 67 | |
| 20260905144027 | 66 | 346 | 3.0 | 10.0 | 0.00 | 0.26 | 0.00 | 67 | |
| 20260905143019 | 66 | 345 | 4.0 | 8.0 | 0.00 | 0.26 | 0.00 | 65 | |
| 20260905142028 | 67 | 343 | 4.0 | 8.0 | 0.00 | 0.26 | 0.00 | 64 | |
| 20260905141019 | 66 | 352 | 4.0 | 7.0 | 0.00 | 0.26 | 0.00 | 68 | |
| 20260905140028 | 65 | 332 | 4.0 | 7.0 | 0.00 | 0.26 | 0.00 | 72 | |
| 20260905135019 | 67 | 345 | 4.0 | 8.0 | 0.00 | 0.26 | 0.00 | 62 | |
| 20260905134027 | 69 | 341 | 5.0 | 11.0 | 0.00 | 0.26 | 0.00 | 58 | |
| 20260905133020 | 68 | 354 | 6.0 | 10.0 | 0.00 | 0.26 | 0.00 | 59 | |
| 20260905132027 | 70 | 347 | 3.0 | 8.0 | 0.00 | 0.26 | 0.00 | 59 | |
| 20260905131020 | 70 | 343 | 4.0 | 9.0 | 0.00 | 0.26 | 0.00 | 59 | |
| 20260905130027 | 71 | 333 | 4.0 | 9.0 | 0.00 | 0.26 | 0.00 | 55 | |
| 20260905125019 | 72 | 342 | 3.0 | 13.0 | 0.00 | 0.26 | 0.00 | 55 | |
| 20260905124029 | 71 | 343 | 3.0 | 12.0 | 0.00 | 0.26 | 0.00 | 56 | |
| 20260905123019 | 71 | 299 | 3.0 | 8.0 | 0.00 | 0.26 | 0.00 | 55 | |
| 20260905122027 | 71 | 339 | 3.0 | 6.0 | 0.00 | 0.26 | 0.00 | 57 | |
| 20260905121019 | 72 | 345 | 2.0 | 7.0 | 0.00 | 0.26 | 0.00 | 56 | |
| 20260905120028 | 71 | 275 | 2.0 | 6.0 | 0.00 | 0.26 | 0.00 | 57 | |
| 20260905115021 | 71 | 344 | 2.0 | 7.0 | 0.00 | 0.26 | 0.00 | 58 | |
| 20260905114030 | 69 | 357 | 1.0 | 4.0 | 0.00 | 0.26 | 0.00 | 62 | |
| 20260905113035 | 67 | 336 | 1.0 | 3.0 | 0.00 | 0.26 | 0.00 | 64 | |
| 20260905112031 | 67 | 336 | 3.0 | 6.0 | 0.00 | 0.26 | 0.00 | 62 | |
| 20260905111019 | 67 | 34 | 1.0 | 4.0 | 0.00 | 0.26 | 0.00 | 64 | |
| 20260905110028 | 68 | 18 | 2.0 | 6.0 | 0.00 | 0.26 | 0.00 | 61 | |
| 20260905105019 | 70 | 3 | 2.0 | 5.0 | 0.00 | 0.26 | 0.00 | 58 | |
| 20260905104027 | 67 | 114 | 1.0 | 5.0 | 0.00 | 0.26 | 0.00 | 63 | |
| 20260905103019 | 66 | 344 | 2.0 | 8.0 | 0.00 | 0.26 | 0.00 | 63 | |
| 20260905102028 | 66 | 36 | 1.0 | 5.0 | 0.00 | 0.26 | 0.00 | 65 | |
| 20260905101022 | 66 | 325 | 2.0 | 5.0 | 0.00 | 0.26 | 0.00 | 65 | |
| 20260905100028 | 67 | 312 | 1.0 | 4.0 | 0.00 | 0.26 | 0.00 | 64 | |
| 20260905095020 | 68 | 359 | 2.0 | 6.0 | 0.00 | 0.26 | 0.00 | 63 | |
| 20260905094024 | 68 | 350 | 1.0 | 4.0 | 0.00 | 0.26 | 0.00 | 63 | |
| 20260905093020 | 69 | 342 | 2.0 | 6.0 | 0.00 | 0.26 | 0.00 | 63 | |
| 20260905092025 | 68 | 355 | 2.0 | 8.0 | 0.00 | 0.26 | 0.00 | 65 | |
| 20260905091019 | 66 | 337 | 3.0 | 8.0 | 0.00 | 0.26 | 0.00 | 67 | |
| 20260905090028 | 66 | 5 | 3.0 | 7.0 | 0.00 | 0.26 | 0.00 | 69 | |
| 20260905085020 | 65 | 357 | 2.0 | 5.0 | 0.00 | 0.26 | 0.00 | 73 | |
| 20260905084028 | 65 | 330 | 2.0 | 4.0 | 0.00 | 0.26 | 0.00 | 72 | |
| 20260905083021 | 66 | 332 | 2.0 | 5.0 | 0.00 | 0.26 | 0.00 | 71 | |
| 20260905082029 | 66 | 23 | 2.0 | 9.0 | 0.00 | 0.26 | 0.00 | 72 | |
| 20260905081021 | 65 | 354 | 2.0 | 6.0 | 0.00 | 0.26 | 0.00 | 74 | |
| 20260905080027 | 65 | 329 | 2.0 | 4.0 | 0.00 | 0.26 | 0.00 | 77 | |
| 20260905075019 | 63 | 346 | 1.0 | 5.0 | 0.00 | 0.26 | 0.00 | 81 | |
| 20260905074029 | 61 | 61 | 1.0 | 4.0 | 0.00 | 0.26 | 0.00 | 85 | |
| 20260905073021 | 61 | 281 | 1.0 | 3.0 | 0.00 | 0.26 | 0.00 | 84 | |
| 20260905072028 | 61 | 124 | 1.0 | 3.0 | 0.00 | 0.26 | 0.00 | 85 | |
| 20260905071020 | 60 | 161 | 1.0 | 4.0 | 0.00 | 0.26 | 0.00 | 85 | |
| 20260905070027 | 60 | 211 | 1.0 | 5.0 | 0.00 | 0.26 | 0.00 | 85 | |
| 20260905065019 | 60 | 222 | 2.0 | 4.0 | 0.00 | 0.26 | 0.00 | 87 | |
| 20260905064029 | 59 | 211 | 0.0 | 4.0 | 0.00 | 0.26 | 0.00 | 89 | |
| 20260905063021 | 58 | 155 | 1.0 | 2.0 | 0.00 | 0.26 | 0.00 | 91 | |
| 20260905062027 | 58 | 156 | 0.0 | 2.0 | 0.00 | 0.26 | 0.00 | 92 | |
| 20260905061019 | 57 | 151 | 0.0 | 2.0 | 0.00 | 0.26 | 0.00 | 92 | |
| 20260905060027 | 57 | 155 | 1.0 | 2.0 | 0.00 | 0.26 | 0.00 | 93 | |
| 20260905055019 | 56 | 135 | 0.0 | 2.0 | 0.00 | 0.26 | 0.00 | 94 | |
| 20260905054029 | 55 | 206 | 0.0 | 2.0 | 0.00 | 0.26 | 0.00 | 94 | |
| 20260905053023 | 55 | 194 | 0.0 | 2.0 | 0.00 | 0.26 | 0.00 | 94 | |
| 20260905052027 | 55 | 209 | 0.0 | 2.0 | 0.00 | 0.26 | 0.00 | 95 | |
| 20260905051019 | 55 | 163 | 0.0 | 1.0 | 0.00 | 0.26 | 0.00 | 95 | |
| 20260905050033 | 55 | 41 | 0.0 | 2.0 | 0.00 | 0.26 | 0.00 | 95 | |
| 20260905045019 | 54 | 16 | 0.0 | 2.0 | 0.00 | 0.26 | 0.00 | 95 | |
| 20260905044029 | 54 | 57 | 0.0 | 3.0 | 0.00 | 0.26 | 0.00 | 95 | |
| 20260905043019 | 54 | 94 | 0.0 | 2.0 | 0.00 | 0.26 | 0.00 | 95 | |
| 20260905042023 | 54 | 102 | 0.0 | 1.0 | 0.00 | 0.26 | 0.00 | 95 | |
| 20260905041021 | 54 | 0.0 | 0.0 | 0.00 | 0.26 | 0.00 | 94 | ||
| 20260905040023 | 54 | 358 | 0.0 | 1.0 | 0.00 | 0.26 | 0.00 | 94 | |
| 20260905035035 | 55 | 0.0 | 0.0 | 0.00 | 0.26 | 0.00 | 94 | ||
| 20260905034028 | 55 | 0.0 | 0.0 | 0.00 | 0.26 | 0.00 | 94 | ||
| 20260905033019 | 55 | 335 | 0.0 | 1.0 | 0.00 | 0.26 | 0.00 | 94 | |
| 20260905032029 | 55 | 0.0 | 0.0 | 0.00 | 0.26 | 0.00 | 93 |